N9XP-9 Weather Reports


time (UTC)temp
F
wind
direction
speed
knots
gust
knots
rain 1hr
in
rain 24hr
in
rain mn
in
humidity
%
barometer
mb
20260504194601 78 157 2.6 9.6 0.00 0.00 0.00 38 999.2
20260504193050 77 124 3.5 11.3 0.00 0.00 0.00 39 999.6
20260504191606 78 133 5.2 12.2 0.00 0.00 0.00 35 999.6
20260504190050 78 152 2.6 11.3 0.00 0.00 0.00 37 999.6
20260504184547 78 165 3.5 8.7 0.00 0.00 0.00 32 999.8
20260504183044 78 135 2.6 8.7 0.00 0.00 0.00 32 999.9
20260504181539 76 303 3.5 9.6 0.00 0.00 0.00 31 1000.0
20260504180035 76 165 4.3 12.2 0.00 0.00 0.00 34 1000.4
20260504174533 75 117 5.2 10.4 0.00 0.01 0.00 34 1000.5
20260504173031 75 146 1.7 12.2 0.00 0.01 0.00 38 1000.7
20260504171542 74 160 2.6 7.8 0.00 0.01 0.00 39 1000.8
20260504081507 45 165 0.0 0.0 0.00 0.03 0.00 88 1004.5
20260504044528 54 130 0.0 0.9 0.00 0.03 0.03 73 1006.4
20260504043038 54 149 0.0 1.7 0.00 0.03 0.03 72 1006.3
20260504041534 55 116 0.0 0.9 0.00 0.03 0.03 71 1006.3
20260504040026 55 150 0.0 1.7 0.00 0.03 0.03 69 1006.3
20260504034526 56 137 0.0 0.9 0.00 0.03 0.03 67 1006.3
20260504033029 57 131 0.0 1.7 0.00 0.03 0.03 65 1006.5
20260504031525 58 155 0.0 3.5 0.00 0.03 0.03 63 1006.6
20260504030027 58 183 0.0 2.6 0.00 0.03 0.03 62 1006.7
20260504024523 59 147 0.0 2.6 0.00 0.03 0.03 62 1006.7
20260504023027 59 139 0.0 6.1 0.00 0.03 0.03 61 1006.6
20260504021523 60 155 0.9 3.5 0.00 0.03 0.03 60 1006.6
20260504020025 60 145 0.0 2.6 0.00 0.03 0.03 59 1006.5
20260504014531 61 179 0.0 3.5 0.00 0.03 0.03 58 1006.3
20260504013022 61 146 0.9 4.3 0.00 0.03 0.03 57 1006.2
20260504011523 62 158 0.0 4.3 0.00 0.03 0.03 56 1006.1
20260504010019 63 142 0.9 4.3 0.00 0.03 0.03 55 1005.9
20260504004521 64 169 0.0 3.5 0.00 0.03 0.03 51 1006.0
20260504003019 65 156 1.7 5.2 0.00 0.03 0.03 49 1006.1
20260504001518 66 150 2.6 6.1 0.00 0.03 0.03 48 1006.1
20260504000016 67 184 2.6 7.8 0.00 0.03 0.03 46 1006.1
20260503234517 67 174 2.6 11.3 0.00 0.03 0.03 45 1006.0
20260503233016 68 258 2.6 12.2 0.00 0.03 0.03 43 1006.1
20260503231517 68 197 4.3 11.3 0.00 0.03 0.03 42 1006.2
20260503230017 68 219 2.6 13.0 0.00 0.03 0.03 42 1006.3
20260503224516 68 116 2.6 8.7 0.00 0.03 0.03 44 1006.4
20260503223014 68 123 1.7 12.2 0.00 0.03 0.03 44 1006.5
20260503221512 69 169 3.5 10.4 0.00 0.03 0.03 42 1006.5
20260503220007 68 169 2.6 11.3 0.00 0.03 0.03 43 1006.7
20260503214504 67 136 5.2 14.8 0.00 0.03 0.03 42 1006.9
20260503213001 66 130 7.8 16.5 0.00 0.03 0.03 42 1007.1
20260503211557 65 143 5.2 11.3 0.00 0.03 0.03 44 1007.4
20260503210057 65 144 4.3 17.4 0.00 0.03 0.03 43 1007.7
20260503204553 65 164 5.2 20.0 0.00 0.03 0.03 43 1008.0
20260503203055 65 160 4.3 14.8 0.00 0.03 0.03 42 1008.4
20260503201549 65 221 6.1 16.5 0.00 0.03 0.03 41 1008.7
20260503200047 64 174 5.2 16.5 0.00 0.03 0.03 42 1008.8